Regional Weather Roundup
Issued by NWS Memphis, TN

Home | Current Version | Previous Version | Text Only | Print | Product List | Glossary On
Versions: 1 2 3 4 5 6 7 8 9 10 11 12 13 14 15 16 17 18 19 20 21 22 23 24 25 26 27 28 29 30 31 32 33 34 35 36 37 38 39 40 41 42 43 44 45 46 47 48 49 50
000
ASUS44 KMEG 262010
RWRMEG
MEMPHIS CWA HOURLY WEATHER ROUNDUP
NATIONAL WEATHER SERVICE MEMPHIS TN
300 PM CDT TUE SEP 26 2017

...WEST TENNESSEE...

CITY           SKY/WX    TMP DP  RH WIND       PRES   REMARKS
MEMPHIS INTL   MOSUNNY   89  65  44 VRB6      29.94F HX  91
NWS MEMPHIS      N/A     87 N/A N/A MISG        N/A
JACKSON        MOSUNNY   91  64  40 N3        29.95F HX  92
COVINGTON      MOSUNNY   88  66  48 E5        29.94F HX  90
SOMERVILLE     MOSUNNY   88  66  48 CALM      29.94F HX  90
BOLIVAR        MOSUNNY   88  64  45 CALM      29.94F
LEXINGTON      SUNNY     88  66  48 NW5       29.94F HX  90
SELMER         MOSUNNY   88  64  45 NW6       29.95F
SAVANNAH       SUNNY     88  63  42 VRB3      29.93F
PARIS          SUNNY     88  66  48 SE5       29.94F HX  90
HUNTINGDON     MOSUNNY   90  66  45 CALM      29.94F HX  92


...EASTERN ARKANSAS...

CITY           SKY/WX    TMP DP  RH WIND       PRES   REMARKS
JONESBORO      PTSUNNY   90  66  45 W3        29.93F HX  92
WEST MEMPHIS   MOSUNNY   90  66  45 VRB3      29.92F HX  92
BATESVILLE     MOSUNNY   87  64  46 SW5       29.95F
NEWPORT        SUNNY     90  65  43 SE3       29.94F HX  92
WALNUT RIDGE   MOSUNNY   90  65  43 S6        29.94F HX  92
BLYTHEVILLE    SUNNY     89  66  46 CALM      29.94F HX  91
NW BLYTHEVILLE MOSUNNY   88  66  48 VRB3      29.94F HX  90
SEARCY         SUNNY     90  67  46 VRB7      29.95F HX  93
STUTTGART      PTSUNNY   88  67  49 NE7       29.94F HX  91
PINE BLUFF     LGT RAIN  83  68  60 E6        29.93F
MONTICELLO     MOSUNNY   87  69  54 CALM      29.92F HX  91


...NORTH MISSISSIPPI...

CITY           SKY/WX    TMP DP  RH WIND       PRES   REMARKS
TUPELO         MOSUNNY   88  61  40 CALM      29.93F
OXFORD         MOSUNNY   86  66  51 VRB5      29.95
BATESVILLE     MOSUNNY   89  62  40 CALM      29.94F
OLIVE BRANCH   PTSUNNY  N/A N/A N/A CALM      29.93F
TUNICA           N/A    N/A N/A N/A E7        29.94
CLARKSDALE       N/A     88  68  51 CALM      29.93  HX  91
GREENWOOD      PTSUNNY   88  68  51 NE6       29.91F HX  91
COLUMBUS       SUNNY     88  68  50 N3        29.92F HX  92
STARKVILLE     MOSUNNY   90  63  40 E3        29.93  HX  90
GOLDEN TRIANGL MOSUNNY   88  64  45 CALM      29.92F


...SOUTHEAST MISSOURI...

CITY           SKY/WX    TMP DP  RH WIND       PRES   REMARKS
KENNETT        MOSUNNY   90  63  40 VRB3      29.93  HX  90
MALDEN         SUNNY     90  59  35 SE3       29.95
WEST PLAINS    MOSUNNY   88  59  37 CALM      29.99F
POPLAR BLUFF   SUNNY     91  61  36 CALM      29.93F HX  91
CAPE GIRARDEAU MOSUNNY   87  63  44 N5        29.94F


...NORTHWEST ALABAMA...

CITY           SKY/WX    TMP DP  RH WIND       PRES   REMARKS
MUSCLE SHOALS  SUNNY     89  61  38 VRB5      29.96F


...MIDDLE TENNESSEE...

CITY           SKY/WX    TMP DP  RH WIND       PRES   REMARKS
NASHVILLE      MOSUNNY   90  63  40 N9        29.96F HX  91
CLARKSVILLE    SUNNY     88  62  41 VRB6      29.95F
COLUMBIA       MOSUNNY   88  63  42 NW5G12    29.93F


...WESTERN KENTUCKY...

CITY           SKY/WX    TMP DP  RH WIND       PRES   REMARKS
PADUCAH        SUNNY     89  60  37 CALM      29.94F
FORT CAMPBELL  MOSUNNY   87  66  49 N8        29.95F


...CENTRAL ARKANSAS...

CITY           SKY/WX    TMP DP  RH WIND       PRES   REMARKS
LITTLE ROCK    MOSUNNY   88  65  46 CALM      29.93F HX  90


SKY/WX REPORTED AS FAIR MEANS FEW OR NO CLOUDS BELOW
12 THOUSAND FEET.





USA.gov is the U.S. government's official web portal to all federal, state and local government web resources and services.